Saint Simons Island, GA

4:23 AM EDT on April 24, 2017 (GMT -0400)
McKinnon

Weather History for KSSI - May, 2013

Change the Weather History Date:

Tuesday, May 28, 2013

  Actual Average Record
Temperature  
Mean Temperature 78 °F 78 °F  
Max Temperature 82 °F 85 °F 97 °F (1964)
Min Temperature 73 °F 70 °F 54 °F (1961)
Degree Days  
Heating Degree Days 0 0  
Month to date heating degree days 1 2  
Since 1 July heating degree days 1268 1486  
Cooling Degree Days 13 12  
Month to date cooling degree days 211 259  
Year to date cooling degree days 357 402  
Growing Degree Days 28 (Base 50)    
Moisture  
Dew Point 64 °F    
Average Humidity 64    
Maximum Humidity 74    
Minimum Humidity 54    
Precipitation  
Precipitation 0.00 in 0.08 in 1.33 in (1992)
Month to date precipitation 3.40 1.57  
Year to date precipitation 12.42 14.63  
Snow  
Snow 0.00 in - 0.00 in ()
Month to date snowfall 0.0  
Since 1 July snowfall 0.0  
Snow Depth 0.00 in    
Sea Level Pressure  
Sea Level Pressure 30.19 in    
Wind  
Wind Speed 11 mph (ESE)    
Max Wind Speed 15 mph    
Max Gust Speed 21 mph    
Visibility 10 miles    
Events      
T = Trace of Precipitation, MM = Missing Value Source: NWS Daily Summary

Daily Weather History Graph

Daily Weather History Graph

Search for Another Location

Airport or City:

Trip Planner

Search our weather history database for the weather conditions in past years. The results will help you decide how hot, cold, wet, or windy it might be!

Date:

Astronomy

May. 28, 2013 Rise Set
Actual Time 6:23 AM EDT 8:22 PM EDT
Civil Twilight 5:56 AM EDT 8:50 PM EDT
Nautical Twilight 5:23 AM EDT 9:23 PM EDT
Astronomical Twilight 4:47 AM EDT 9:58 PM EDT
Moon 11:53 PM EDT (5/28) 10:04 AM EDT (5/28)
Length of Visible Light 14h 53m
Length of Day
13h 59m
Waning Gibbous, 83% of the Moon is Illuminated
May 28
Waning Gibbous
May 31
Last Quarter
Jun 8
New
Jun 16
First Quarter
Jun 23
Full

Hourly Weather History & Observations

Time (EDT) Temp. Heat Index Dew Point Humidity Pressure Visibility Wind Dir Wind Speed Gust Speed Precip Events Conditions
12:53 AM 73.9 °F - 63.0 °F 68% 30.21 in 10.0 mi SE 10.4 mph - N/A   Clear
1:53 AM 73.9 °F - 62.1 °F 66% 30.21 in 10.0 mi SE 9.2 mph - N/A   Clear
2:53 AM 73.9 °F - 63.0 °F 68% 30.19 in 10.0 mi SE 10.4 mph - N/A   Clear
3:53 AM 73.9 °F - 62.1 °F 66% 30.16 in 10.0 mi SE 9.2 mph 17.3 mph N/A   Clear
4:53 AM 73.9 °F - 62.1 °F 66% 30.16 in 10.0 mi SSE 6.9 mph - N/A   Clear
5:53 AM 73.9 °F - 62.1 °F 66% 30.17 in 10.0 mi SSE 9.2 mph - N/A   Clear
6:53 AM 73.9 °F - 63.0 °F 68% 30.18 in 10.0 mi ESE 8.1 mph - N/A   Partly Cloudy
7:53 AM 75.9 °F - 63.0 °F 64% 30.19 in 10.0 mi ESE 9.2 mph - N/A   Scattered Clouds
8:53 AM 78.1 °F - 63.0 °F 60% 30.21 in 10.0 mi SE 11.5 mph - N/A   Partly Cloudy
9:53 AM 79.0 °F - 63.0 °F 58% 30.22 in 10.0 mi SE 11.5 mph - N/A   Clear
10:53 AM 80.1 °F 81.5 °F 63.0 °F 56% 30.22 in 10.0 mi SE 12.7 mph - N/A   Partly Cloudy
11:53 AM 80.1 °F 81.7 °F 64.0 °F 58% 30.23 in 10.0 mi SE 11.5 mph - N/A   Partly Cloudy
12:53 PM 81.0 °F 82.5 °F 64.0 °F 56% 30.23 in 10.0 mi SE 12.7 mph 19.6 mph N/A   Clear
1:53 PM 81.0 °F 82.5 °F 64.0 °F 56% 30.22 in 10.0 mi SE 11.5 mph - N/A   Partly Cloudy
2:53 PM 82.0 °F 83.4 °F 64.0 °F 54% 30.21 in 10.0 mi ESE 13.8 mph - N/A   Clear
3:53 PM 81.0 °F 82.5 °F 64.0 °F 56% 30.20 in 10.0 mi East 11.5 mph - N/A   Clear
4:53 PM 80.1 °F 81.5 °F 63.0 °F 56% 30.19 in 10.0 mi ESE 10.4 mph - N/A   Clear
5:53 PM 80.1 °F 81.7 °F 64.0 °F 58% 30.18 in 10.0 mi East 13.8 mph 19.6 mph N/A   Clear
6:53 PM 77.0 °F - 64.0 °F 64% 30.17 in 10.0 mi ESE 11.5 mph - N/A   Partly Cloudy
7:53 PM 75.9 °F - 64.0 °F 67% 30.17 in 10.0 mi East 13.8 mph - N/A   Scattered Clouds
8:53 PM 75.0 °F - 64.9 °F 71% 30.17 in 10.0 mi ESE 11.5 mph - N/A   Clear
9:53 PM 75.0 °F - 66.0 °F 73% 30.18 in 10.0 mi ESE 11.5 mph - N/A   Clear
10:53 PM 75.0 °F - 66.0 °F 73% 30.19 in 10.0 mi ESE 10.4 mph - N/A   Clear
11:53 PM 75.0 °F - 66.0 °F 73% 30.19 in 10.0 mi ESE 10.4 mph - N/A   Clear